1484787600.68,21100,6.13,73922.5,-17.11,-48.91,-49.11,0,*6D
1484787601.94,21101,6.13,73924.0,-17.11,-48.97,-49.19,0,*62
1484787603.23,21102,6.13,73922.3,-17.11,-49.11,-49.19,0,*6E
1484787604.45,21103,6.13,73922.8,-17.13,-49.05,-49.25,0,*67
1484787605.72,21104,6.13,73924.0,-17.11,-49.11,-49.33,0,*60
1484787607.0,21105,6.13,73924.0,-17.11,-49.11,-49.33,0,*61
1484787608.27,21106,6.13,73924.0,-17.11,-48.77,-49.05,0,*66
1484787609.52,21107,6.13,73924.0,-17.13,-49.05,-49.11,0,*64
1484787610.81,21108,6.13,73924.8,-17.11,-49.11,-49.19,0,*64
1484787612.03,21109,6.13,73924.3,-17.13,-48.97,-49.25,0,*67
1484787613.26,21110,6.13,73924.8,-17.13,-48.35,-48.41,0,*64
1484787614.54,21111,6.13,73922.0,-17.11,-48.07,-48.27,0,*66
1484787615.8,21112,6.13,73926.0,-17.11,-48.49,-48.77,0,*6A
1484787617.1,21113,6.13,73924.3,-17.11,-48.69,-48.91,0,*61
1484787618.39,21114,6.13,73924.5,-17.11,-48.69,-48.91,0,*66
1484787619.64,21115,6.13,73926.3,-17.13,-48.83,-49.11,0,*68
1484787620.93,21116,6.13,73924.3,-17.11,-48.77,-49.19,0,*6A
1484787622.22,21117,6.13,73924.5,-17.11,-48.77,-49.19,0,*6B
1484787623.44,21118,6.13,73924.3,-17.13,-48.41,-48.55,0,*6A
1484787624.74,21119,6.13,73924.8,-17.11,-48.77,-48.91,0,*64
1484787626.0,21120,6.13,73924.5,-17.11,-48.77,-48.97,0,*68
1484787627.29,21121,6.13,73924.3,-17.11,-48.91,-49.11,0,*6E
1484787628.56,21122,6.13,73922.8,-17.11,-48.97,-49.11,0,*6B
1484787629.8,21123,6.13,73930.0,-17.13,-48.97,-49.19,0,*60
1484787631.08,21124,6.13,73924.0,-17.11,-49.11,-49.33,0,*62
1484787632.29,21125,6.13,73924.5,-17.13,-48.97,-49.25,0,*69
1484787633.56,21126,6.13,73926.0,-17.11,-48.49,-48.77,0,*6D
1484787634.8,21127,6.13,73926.5,-17.13,-48.83,-49.19,0,*61
1484787636.01,21128,6.13,73922.8,-17.13,-48.63,-48.97,0,*67
1484787637.25,21129,6.13,73928.3,-17.13,-48.97,-49.19,0,*6A
1484787638.49,21130,6.13,73924.3,-17.13,-48.97,-49.11,0,*6A
1484787639.73,21131,6.13,73920.8,-17.13,-48.83,-49.19,0,*66
1484787640.97,21132,6.13,73924.0,-17.13,-48.97,-49.19,0,*60
1484787642.2,21133,6.13,73926.8,-17.13,-48.83,-49.19,0,*64
1484787643.46,21134,6.13,73922.3,-17.17,-49.05,-49.19,0,*68
1484787644.73,21135,6.13,73924.5,-17.17,-48.97,-49.19,0,*63
1484787645.96,21136,6.13,73924.5,-17.17,-48.83,-49.05,0,*68
1484787647.2,21137,6.13,73926.0,-17.17,-48.63,-48.97,0,*6D
1484787648.46,21138,6.13,73924.5,-17.17,-48.83,-49.19,0,*6B
1484787649.7,21139,6.13,73924.3,-17.17,-48.21,-48.41,0,*6E
1484787650.97,21140,6.13,73924.5,-17.17,-48.55,-48.77,0,*66
1484787652.2,21141,6.13,73924.5,-17.17,-48.97,-49.25,0,*6F
1484787653.46,21142,6.13,73924.3,-17.17,-48.97,-49.19,0,*63
1484787654.72,21143,6.13,73926.0,-17.17,-49.05,-49.19,0,*68
1484787655.96,21144,6.13,73924.0,-17.17,-48.83,-49.05,0,*6D
1484787657.2,21145,6.13,73924.0,-17.17,-48.83,-49.05,0,*6C
1484787658.47,21146,6.13,73920.3,-17.17,-48.41,-48.77,0,*65
1484787659.71,21147,6.13,73922.3,-17.21,-48.63,-49.05,0,*65
1484787660.93,21148,6.13,73922.5,-17.13,-48.63,-48.83,0,*64
1484787662.15,21149,6.13,73926.5,-17.13,-48.63,-48.83,0,*65
1484787663.4,21150,6.13,73922.3,-17.17,-48.83,-49.19,0,*65
1484787664.66,21151,6.13,73920.3,-17.17,-48.97,-49.19,0,*61
1484787665.9,21152,6.13,73926.5,-17.17,-49.05,-49.25,0,*67
1484787667.14,21153,6.13,73922.5,-17.21,-48.49,-48.63,0,*69
1484787668.38,21154,6.13,73922.5,-17.17,-48.55,-48.83,0,*68
1484787669.62,21155,6.13,73924.8,-17.17,-48.63,-48.83,0,*6C
1484787670.91,21156,6.13,73924.5,-17.17,-48.77,-49.19,0,*68
1484787672.15,21157,6.13,73924.8,-17.21,-49.05,-49.25,0,*67
1484787673.41,21158,6.13,73920.8,-17.21,-48.91,-49.25,0,*64
1484787674.7,21159,6.13,73924.8,-17.21,-48.69,-48.91,0,*6C
1484787675.97,21160,6.13,73924.8,-17.21,-48.69,-48.83,0,*65
1484787677.2,21161,6.13,73922.5,-17.17,-49.05,-49.25,0,*67
1484787678.44,21162,6.13,73924.5,-17.17,-48.97,-49.25,0,*6E
1484787679.68,21163,6.13,73924.3,-17.21,-49.05,-49.33,0,*67
1484787680.94,21164,6.13,73924.0,-17.17,-48.83,-49.19,0,*62
1484787682.2,21165,6.13,73922.8,-17.17,-48.97,-49.19,0,*66
1484787683.46,21166,6.13,73922.3,-17.21,-49.33,-49.47,0,*64
1484787684.7,21167,6.13,73926.0,-17.17,-48.97,-49.25,0,*6B
1484787685.96,21168,6.13,73922.0,-17.21,-48.63,-48.91,0,*64
1484787687.22,21169,6.13,73924.0,-17.21,-48.49,-48.69,0,*6A
1484787688.48,21170,6.13,73924.5,-17.17,-48.83,-49.19,0,*67
1484787689.73,21171,6.13,73922.5,-17.21,-48.83,-48.91,0,*62
1484787691.0,21172,6.13,73920.8,-17.21,-48.69,-49.05,0,*69
1484787692.26,21173,6.13,73920.3,-17.21,-48.63,-48.91,0,*6E
1484787693.53,21174,6.13,73922.5,-17.21,-48.69,-49.05,0,*6F
1484787694.76,21175,6.13,73924.0,-17.21,-48.83,-49.25,0,*68
1484787696.0,21176,6.13,73922.8,-17.21,-49.05,-49.25,0,*64
1484787697.26,21177,6.13,73926.0,-17.21,-48.91,-49.33,0,*6E
1484787698.53,21178,6.13,73924.0,-17.21,-49.05,-49.11,0,*6D
1484787699.82,21179,6.13,73922.3,-17.21,-48.69,-48.91,0,*6E
1484787701.08,21180,6.13,73924.0,-17.21,-49.05,-49.47,0,*69
1484787702.32,21181,6.13,73920.5,-17.21,-49.25,-49.33,0,*69
1484787703.61,21182,6.13,73922.3,-17.21,-48.91,-49.11,0,*64
1484787704.85,21183,6.13,73922.0,-17.23,-49.11,-49.33,0,*6E
1484787706.14,21184,6.13,73924.8,-17.25,-48.91,-49.19,0,*6E
1484787707.38,21185,6.13,73922.5,-17.23,-48.91,-49.33,0,*61
1484787708.64,21186,6.13,73922.3,-17.23,-48.91,-49.19,0,*6A
1484787709.9,21187,6.13,73922.5,-17.25,-48.77,-48.97,0,*62
1484787711.16,21188,6.13,73920.5,-17.25,-48.97,-49.19,0,*64
1484787712.42,21189,6.13,73922.5,-17.23,-49.19,-49.53,0,*6A
1484787713.68,21190,6.13,73926.0,-17.25,-49.33,-49.53,0,*6C
1484787714.96,21191,6.13,73924.8,-17.25,-48.91,-49.19,0,*6A
1484787716.22,21192,6.13,73922.8,-17.23,-48.91,-48.91,0,*6E
1484787717.51,21193,6.13,73924.5,-17.25,-49.11,-49.39,0,*63
1484787718.78,21194,6.13,73926.3,-17.23,-49.11,-49.39,0,*62
1484787720.0,21195,6.13,73920.8,-17.23,-48.97,-49.33,0,*66
1484787721.24,21196,6.13,73924.8,-17.23,-48.69,-48.97,0,*6B
1484787722.48,21197,6.13,73926.8,-17.23,-48.21,-48.27,0,*6D
1484787723.77,21198,6.13,73924.5,-17.25,-48.69,-48.91,0,*65
1484787725.07,21199,6.13,73922.0,-17.25,-48.69,-49.11,0,*6D
1484787726.3,21200,6.13,73920.5,-17.23,-48.77,-48.97,0,*68
1484787727.57,21201,6.13,73924.5,-17.23,-48.69,-48.77,0,*68
1484787728.84,21202,6.13,73922.0,-17.21,-48.69,-49.05,0,*6D
1484787730.13,21203,6.13,73922.5,-17.25,-48.77,-49.11,0,*62
1484787731.43,21204,6.13,73924.0,-17.25,-48.77,-49.11,0,*65
1484787732.72,21205,6.13,73924.5,-17.25,-48.77,-49.11,0,*64
1484787733.99,21206,6.13,73924.0,-17.23,-48.91,-49.11,0,*69
1484787735.25,21207,6.13,73924.3,-17.25,-48.91,-49.33,0,*6E
1484787736.51,21208,6.13,73924.3,-17.25,-48.77,-48.97,0,*66
1484787737.78,21209,6.13,73920.5,-17.25,-48.55,-48.69,0,*66
1484787739.07,21210,6.13,73924.0,-17.25,-48.77,-49.11,0,*60
1484787740.34,21211,6.13,73924.0,-17.25,-48.49,-48.69,0,*62
1484787741.57,21212,6.13,73926.8,-17.23,-48.77,-48.97,0,*6B
1484787742.87,21213,6.13,73922.8,-17.25,-48.77,-49.11,0,*63
1484787744.08,21214,6.13,73922.0,-17.23,-48.97,-49.33,0,*6C
1484787745.32,21215,6.13,73922.5,-17.25,-48.97,-49.33,0,*6B
1484787746.57,21216,6.13,73922.0,-17.23,-49.11,-49.33,0,*61
1484787747.78,21217,6.13,73922.5,-17.23,-48.97,-49.33,0,*6F
1484787749.05,21218,6.13,73920.3,-17.23,-49.11,-49.39,0,*65
1484787750.31,21219,6.13,73920.3,-17.25,-48.97,-49.19,0,*6F
1484787751.6,21220,6.13,73924.8,-17.25,-48.77,-48.91,0,*6A
1484787752.86,21221,6.13,73926.3,-17.25,-48.77,-48.97,0,*6D
1484787754.1,21222,6.13,73922.8,-17.27,-48.55,-48.77,0,*62
1484787755.36,21223,6.13,73926.8,-17.25,-48.77,-48.97,0,*6F
1484787756.62,21224,6.13,73926.0,-17.25,-48.97,-49.19,0,*61
1484787757.9,21225,6.13,73920.5,-17.25,-48.77,-49.19,0,*6E
1484787759.17,21226,6.13,73924.3,-17.25,-48.49,-48.69,0,*66
1484787760.43,21227,6.13,73926.5,-17.25,-48.55,-48.91,0,*6D
1484787761.7,21228,6.13,73924.0,-17.25,-49.11,-49.33,0,*6A
1484787762.96,21229,6.13,73922.0,-17.25,-48.97,-49.19,0,*6C
1484787764.22,21230,6.13,73926.0,-17.25,-48.77,-48.97,0,*6D
1484787765.51,21231,6.13,73920.8,-17.25,-48.91,-49.11,0,*6B
1484787766.75,21232,6.13,73924.5,-17.25,-48.49,-48.55,0,*6C
1484787767.98,21233,6.13,73924.5,-17.25,-48.49,-48.49,0,*60
1484787769.25,21234,6.13,73924.0,-17.25,-48.49,-48.69,0,*65
1484787770.54,21235,6.13,73924.5,-17.25,-48.69,-48.77,0,*69
1484787771.81,21236,6.13,73924.8,-17.25,-48.91,-49.33,0,*6C
1484787773.1,21237,6.13,73924.8,-17.25,-49.11,-49.19,0,*6C
1484787774.35,21238,6.13,73924.8,-17.27,-49.19,-49.33,0,*61
1484787775.61,21239,6.13,73924.8,-17.27,-48.77,-49.19,0,*61
1484787776.85,21240,6.13,73924.0,-17.27,-48.77,-48.97,0,*68
1484787778.09,21241,6.13,73924.5,-17.29,-48.97,-49.25,0,*61
1484787779.33,21242,6.13,73926.0,-17.27,-48.97,-49.39,0,*61
1484787780.62,21243,6.13,73926.8,-17.29,-49.19,-49.61,0,*64
1484787781.86,21244,6.13,73922.0,-17.29,-49.05,-49.25,0,*6E
1484787783.13,21245,6.13,73922.5,-17.27,-48.91,-49.11,0,*6A
1484787784.37,21246,6.13,73924.8,-17.27,-48.91,-49.33,0,*69
1484787785.59,21247,6.13,73924.3,-17.27,-48.97,-49.33,0,*6E
1484787786.86,21248,6.13,73924.0,-17.27,-48.77,-49.19,0,*67
1484787788.12,21249,6.13,73920.5,-17.27,-48.91,-49.19,0,*6E
1484787789.38,21250,6.13,73924.0,-17.27,-48.91,-49.19,0,*66
1484787790.62,21251,6.13,73926.0,-17.29,-48.97,-49.25,0,*60
1484787791.86,21252,6.13,73926.0,-17.29,-48.63,-48.83,0,*65
1484787793.1,21253,6.13,73922.3,-17.29,-48.63,-48.83,0,*64
1484787794.37,21254,6.13,73924.3,-17.29,-48.55,-48.77,0,*6D
1484787795.61,21255,6.13,73926.3,-17.27,-48.69,-48.97,0,*63
1484787796.88,21256,6.13,73924.0,-17.29,-49.05,-49.39,0,*60
1484787798.18,21257,6.13,73920.8,-17.29,-49.19,-49.39,0,*6C
1484787799.42,21258,6.13,73924.5,-17.29,-49.05,-49.25,0,*63
1484787800.68,21259,6.13,73922.5,-17.29,-48.97,-49.39,0,*65
1484787801.92,21260,6.13,73924.0,-17.29,-48.97,-49.25,0,*62
1484787803.21,21261,6.13,73922.5,-17.29,-49.19,-49.39,0,*69
1484787804.48,21262,6.13,73924.3,-17.29,-48.77,-49.05,0,*6C
1484787805.74,21263,6.13,73922.3,-17.29,-48.83,-49.19,0,*6B
1484787806.98,21264,6.13,73920.3,-17.31,-49.05,-49.39,0,*68
1484787808.19,21265,6.13,73924.0,-17.31,-48.97,-49.25,0,*6E
1484787809.4,21266,6.13,73926.5,-17.31,-48.83,-48.97,0,*60
1484787810.64,21267,6.13,73924.3,-17.29,-48.63,-48.83,0,*63
1484787811.87,21268,6.13,73924.3,-17.31,-48.77,-48.97,0,*65
1484787813.12,21269,6.13,73922.5,-17.31,-48.77,-49.05,0,*6E
1484787814.36,21270,6.13,73926.8,-17.31,-48.77,-49.05,0,*66
1484787815.6,21271,6.13,73926.5,-17.31,-48.77,-48.97,0,*6D
1484787816.81,21272,6.13,73926.5,-17.31,-49.05,-49.25,0,*62
1484787818.1,21273,6.13,73920.8,-17.33,-49.11,-49.47,0,*60
1484787819.38,21274,6.13,73928.0,-17.33,-49.11,-49.47,0,*67
1484787820.65,21275,6.13,73924.3,-17.31,-49.19,-49.39,0,*65
1484787821.91,21276,6.13,73922.8,-17.33,-49.25,-49.47,0,*62
1484787823.17,21277,6.13,73920.0,-17.33,-49.05,-49.47,0,*61
1484787824.46,21278,6.13,73922.5,-17.33,-49.11,-49.47,0,*6B
1484787825.73,21279,6.13,73920.3,-17.33,-49.11,-49.33,0,*69
1484787826.99,21280,6.13,73920.3,-17.33,-49.05,-49.47,0,*69
1484787828.23,21281,6.13,73920.3,-17.33,-49.05,-49.25,0,*6C
1484787829.45,21282,6.13,73920.0,-17.35,-49.05,-49.33,0,*6E
1484787830.67,21283,6.13,73924.3,-17.35,-49.05,-49.33,0,*6F
1484787831.93,21284,6.13,73920.3,-17.35,-49.11,-49.47,0,*6E
1484787833.18,21285,6.13,73920.8,-17.35,-49.11,-49.33,0,*6C
1484787834.41,21286,6.13,73922.3,-17.35,-48.91,-49.25,0,*61
1484787835.68,21287,6.13,73926.3,-17.35,-48.91,-49.11,0,*67
1484787836.91,21288,6.13,73922.3,-17.33,-48.83,-49.25,0,*6A
1484787838.18,21289,6.13,73922.5,-17.37,-48.91,-49.33,0,*6B
1484787839.44,21290,6.13,73920.5,-17.37,-48.97,-49.19,0,*6D
1484787840.73,21291,6.13,73920.5,-17.37,-48.91,-49.11,0,*62
1484787841.99,21292,6.13,73920.8,-17.37,-48.97,-49.39,0,*6D
1484787843.25,21293,6.13,73922.3,-17.37,-48.97,-49.39,0,*6C
1484787844.51,21294,6.13,73924.5,-17.37,-48.97,-49.39,0,*6B
1484787845.75,21295,6.13,73924.0,-17.35,-48.91,-49.25,0,*63
1484787847.04,21296,6.13,73924.5,-17.37,-48.77,-48.91,0,*64
1484787848.25,21297,6.13,73920.5,-17.35,-48.83,-49.05,0,*60
1484787849.52,21298,6.13,73926.0,-17.37,-48.91,-49.33,0,*6B
1484787850.78,21299,6.13,73920.8,-17.37,-48.91,-49.33,0,*6A
1484787852.02,21300,6.13,73924.0,-17.37,-48.97,-49.33,0,*6D
1484787853.28,21301,6.13,73922.3,-17.37,-48.97,-49.39,0,*66
1484787854.55,21302,6.13,73924.5,-17.37,-48.97,-49.39,0,*65
1484787855.79,21303,6.13,73924.0,-17.35,-49.05,-49.11,0,*66
1484787857.08,21304,6.13,73924.3,-17.37,-49.11,-49.39,0,*6C
1484787858.31,21305,6.13,73926.0,-17.37,-48.97,-48.97,0,*67
1484787859.57,21306,6.13,73920.8,-17.37,-48.55,-48.91,0,*6C
1484787860.81,21307,6.13,73924.0,-17.35,-48.83,-49.11,0,*6D
1484787862.07,21308,6.13,73922.8,-17.37,-48.97,-49.39,0,*6F
1484787863.33,21309,6.13,73924.5,-17.37,-48.97,-49.19,0,*6C
1484787864.57,21310,6.13,73926.5,-17.37,-48.97,-49.33,0,*6C
1484787865.85,21311,6.13,73926.0,-17.37,-48.91,-49.19,0,*63
1484787867.14,21312,6.13,73926.3,-17.37,-48.91,-49.11,0,*68
1484787868.43,21313,6.13,73920.5,-17.37,-48.91,-49.19,0,*61
1484787869.72,21314,6.13,73926.0,-17.37,-48.91,-49.11,0,*6E
1484787871.0,21315,6.13,73922.5,-17.37,-48.77,-48.91,0,*6E
1484787872.27,21316,6.13,73920.3,-17.37,-48.55,-48.69,0,*6A
1484787873.53,21317,6.13,73920.8,-17.37,-48.69,-48.97,0,*65
1484787874.77,21318,6.13,73924.3,-17.37,-48.97,-49.33,0,*64
1484787876.03,21319,6.13,73924.8,-17.37,-48.77,-48.97,0,*64
1484787877.29,21320,6.13,73922.3,-17.37,-48.91,-49.33,0,*69
1484787878.55,21321,6.13,73922.3,-17.37,-48.97,-49.53,0,*68
1484787879.84,21322,6.13,73922.3,-17.37,-48.91,-49.11,0,*6B
1484787881.1,21323,6.13,73922.0,-17.37,-48.91,-49.33,0,*6A
1484787882.37,21324,6.13,73918.3,-17.37,-48.97,-49.39,0,*61
1484787883.6,21325,6.13,73924.0,-17.39,-48.77,-48.97,0,*65
1484787884.87,21326,6.13,73922.5,-17.39,-48.69,-48.91,0,*6F
1484787886.11,21327,6.13,73922.0,-17.39,-48.91,-49.33,0,*60
1484787887.36,21328,6.13,73926.0,-17.43,-49.05,-49.47,0,*6D
1484787888.63,21329,6.13,73920.5,-17.39,-49.19,-49.39,0,*65
1484787889.84,21330,6.13,73924.0,-17.43,-48.97,-49.05,0,*68
1484787891.08,21331,6.13,73926.5,-17.39,-48.91,-48.97,0,*68
1484787892.34,21332,6.13,73920.3,-17.39,-48.91,-49.19,0,*6C
1484787893.57,21333,6.13,73922.5,-17.39,-48.77,-48.97,0,*62
1484787894.83,21334,6.13,73920.3,-17.39,-48.91,-49.19,0,*6A
1484787896.08,21335,6.13,73920.8,-17.39,-49.11,-49.33,0,*6A
1484787897.3,21336,6.13,73922.8,-17.43,-49.05,-49.25,0,*66
1484787898.54,21337,6.13,73920.5,-17.43,-48.97,-49.19,0,*62
1484787899.82,21338,6.13,73926.0,-17.43,-49.19,-49.39,0,*68
1484787901.06,21339,6.13,73924.3,-17.39,-48.97,-49.39,0,*63
1484787902.29,21340,6.13,73922.0,-17.39,-48.97,-49.39,0,*6D
1484787903.56,21341,6.13,73924.5,-17.39,-49.11,-49.39,0,*63
1484787904.81,21342,6.13,73920.8,-17.43,-49.05,-49.47,0,*61
1484787906.05,21343,6.13,73922.5,-17.43,-49.05,-49.47,0,*60
1484787907.29,21344,6.13,73920.0,-17.39,-48.97,-49.39,0,*69
1484787908.54,21345,6.13,73920.0,-17.43,-48.97,-49.39,0,*65
1484787909.76,21346,6.13,73924.3,-17.43,-48.49,-48.83,0,*65
1484787910.98,21347,6.13,73924.5,-17.43,-48.97,-49.05,0,*68
1484787912.21,21348,6.13,73920.8,-17.45,-48.83,-49.05,0,*64
1484787913.42,21349,6.13,73922.3,-17.47,-48.83,-49.25,0,*65
1484787914.69,21350,6.13,73918.3,-17.45,-49.05,-49.39,0,*6D
1484787915.93,21351,6.13,73924.0,-17.43,-48.97,-49.19,0,*62
1484787917.16,21352,6.13,73922.5,-17.43,-48.55,-48.63,0,*63
1484787918.4,21353,6.13,73920.8,-17.39,-48.49,-48.69,0,*68
1484787919.67,21354,6.13,73920.5,-17.39,-48.69,-48.77,0,*62
1484787920.91,21355,6.13,73922.0,-17.43,-48.83,-49.19,0,*63
1484787922.13,21356,6.13,73920.5,-17.43,-48.97,-49.25,0,*6A
1484787923.34,21357,6.13,73922.5,-17.43,-48.63,-48.97,0,*68
1484787924.56,21358,6.13,73920.8,-17.43,-48.97,-49.05,0,*66
1484787925.8,21359,6.13,73922.0,-17.43,-48.77,-48.97,0,*63
1484787927.02,21360,6.13,73920.3,-17.43,-48.83,-48.97,0,*62
1484787928.23,21361,6.13,73922.3,-17.43,-48.83,-49.05,0,*69
1484787929.48,21362,6.13,73920.5,-17.43,-48.77,-48.97,0,*6B
1484787930.69,21363,6.13,73920.5,-17.43,-48.83,-49.05,0,*6B
1484787931.94,21364,6.13,73922.5,-17.43,-48.77,-48.97,0,*6D
1484787933.16,21365,6.13,73922.5,-17.43,-48.83,-49.05,0,*6D
1484787934.38,21366,6.13,73920.8,-17.43,-48.63,-49.05,0,*60
1484787935.59,21367,6.13,73922.5,-17.43,-48.63,-48.97,0,*6B
1484787936.88,21368,6.13,73918.8,-17.45,-48.77,-49.19,0,*60
1484787938.1,21369,6.13,73924.5,-17.43,-48.63,-48.97,0,*65
1484787939.32,21370,6.13,73922.3,-17.43,-48.55,-48.83,0,*6D
1484787940.57,21371,6.13,73922.3,-17.43,-48.77,-48.83,0,*6C
1484787941.79,21372,6.13,73918.3,-17.39,-48.41,-48.55,0,*6C
1484787943.03,21373,6.13,73922.5,-17.39,-48.49,-48.77,0,*65
1484787944.25,21374,6.13,73920.3,-17.43,-48.83,-49.05,0,*6D
1484787945.49,21375,6.13,73922.0,-17.43,-48.77,-48.97,0,*6D
1484787946.75,21376,6.13,73918.0,-17.39,-48.77,-48.91,0,*65
1484787947.96,21377,6.13,73920.0,-17.39,-48.63,-48.97,0,*67
1484787949.2,21378,6.13,73922.8,-17.43,-48.77,-48.97,0,*60
1484787950.42,21379,6.13,73922.0,-17.43,-48.97,-49.05,0,*65
1484787951.64,21380,6.13,73924.0,-17.43,-48.83,-49.05,0,*66
1484787952.86,21381,6.13,73920.3,-17.43,-48.83,-49.05,0,*67
1484787954.1,21382,6.13,73926.0,-17.43,-48.83,-49.19,0,*69
1484787955.32,21383,6.13,73922.0,-17.43,-48.83,-49.05,0,*65
1484787956.56,21384,6.13,73924.3,-17.43,-48.97,-49.39,0,*68
1484787957.8,21385,6.13,73922.5,-17.45,-48.83,-49.05,0,*65
1484787959.06,21386,6.13,73922.0,-17.45,-48.97,-49.19,0,*6E
1484787960.32,21387,6.13,73920.5,-17.45,-48.97,-49.19,0,*6F
1484787961.59,21388,6.13,73922.0,-17.45,-48.97,-49.39,0,*62
1484787962.85,21389,6.13,73920.8,-17.45,-48.97,-49.19,0,*61
1484787964.11,21390,6.13,73922.0,-17.45,-48.97,-49.19,0,*69
1484787965.37,21391,6.13,73926.5,-17.45,-48.97,-49.39,0,*6A
1484787966.61,21392,6.13,73920.8,-17.45,-48.83,-49.25,0,*61
1484787967.88,21393,6.13,73922.3,-17.45,-49.05,-49.39,0,*62
1484787969.12,21394,6.13,73920.3,-17.47,-49.05,-49.11,0,*6D
1484787970.36,21395,6.13,73922.3,-17.47,-48.83,-49.11,0,*63
1484787971.58,21396,6.13,73922.8,-17.47,-49.05,-49.05,0,*6A
1484787972.79,21397,6.13,73920.3,-17.47,-49.05,-49.25,0,*69
1484787974.06,21398,6.13,73920.5,-17.45,-48.63,-48.77,0,*63
1484787975.3,21399,6.13,73922.0,-17.47,-48.91,-49.25,0,*6B
1484787976.51,21400,6.13,73920.3,-17.47,-49.05,-49.25,0,*60
1484787977.73,21401,6.13,73922.0,-17.47,-49.05,-49.25,0,*61
1484787978.96,21402,6.13,73924.0,-17.45,-48.97,-49.25,0,*6A
1484787980.18,21403,6.13,73920.8,-17.47,-49.05,-49.25,0,*63
1484787981.44,21404,6.13,73920.5,-17.47,-48.91,-49.11,0,*6F
1484787982.68,21405,6.13,73922.5,-17.47,-48.63,-48.91,0,*6A
1484787983.92,21406,6.13,73922.0,-17.47,-48.91,-49.05,0,*68
1484787985.16,21407,6.13,73922.0,-17.47,-49.05,-49.47,0,*63
1484787986.4,21408,6.13,73920.0,-17.47,-49.05,-49.11,0,*6F
1484787987.62,21409,6.13,73926.0,-17.47,-49.05,-49.25,0,*69
1484787988.85,21410,6.13,73922.0,-17.45,-48.83,-48.97,0,*64
1484787990.07,21411,6.13,73922.8,-17.47,-49.05,-49.33,0,*67
1484787991.31,21412,6.13,73920.5,-17.47,-48.91,-49.25,0,*6F
1484787992.58,21413,6.13,73920.0,-17.47,-48.69,-48.91,0,*67
1484787993.82,21414,6.13,73922.3,-17.45,-48.55,-48.83,0,*6E
1484787995.06,21415,6.13,73920.5,-17.47,-48.91,-49.33,0,*6F
1484787996.3,21416,6.13,73918.3,-17.47,-48.91,-49.25,0,*6B
1484787997.51,21417,6.13,73920.0,-17.47,-48.97,-49.25,0,*6C
1484787998.74,21418,6.13,73922.8,-17.49,-48.83,-48.91,0,*66
1484787999.95,21419,6.13,73920.5,-17.47,-48.83,-49.05,0,*65
1484788001.17,21420,6.13,73920.8,-17.47,-48.83,-49.05,0,*6F
1484788002.39,21421,6.13,73920.0,-17.47,-49.05,-49.33,0,*64
1484788003.63,21422,6.13,73922.8,-17.49,-49.05,-49.11,0,*69
1484788004.88,21423,6.13,73920.3,-17.47,-49.05,-49.11,0,*66
1484788006.12,21424,6.13,73922.3,-17.49,-48.91,-49.25,0,*64
1484788007.39,21425,6.13,73920.0,-17.49,-48.69,-48.69,0,*6B
1484788008.64,21426,6.13,73922.0,-17.49,-48.63,-48.69,0,*62
1484788009.87,21427,6.13,73922.5,-17.49,-48.91,-49.25,0,*67
1484788011.1,21428,6.06,73918.8,-17.49,-49.05,-49.33,0,*63
1484788012.31,21429,6.13,73922.8,-17.49,-48.83,-49.25,0,*6A
1484788013.57,21430,6.13,73922.0,-17.49,-47.93,-48.13,0,*68
1484788014.79,21431,6.13,73920.3,-17.49,-48.21,-48.41,0,*68
1484788016.01,21432,6.13,73924.8,-17.49,-48.41,-48.63,0,*6D
1484788017.26,21433,6.13,73920.0,-17.49,-48.69,-49.05,0,*67
1484788018.53,21434,6.13,73922.3,-17.49,-48.69,-48.91,0,*6C
1484788019.82,21435,6.13,73920.5,-17.51,-48.91,-49.11,0,*6A
1484788021.06,21436,6.13,73920.5,-17.49,-48.83,-49.11,0,*63
1484788022.31,21437,6.13,73920.0,-17.49,-48.83,-49.11,0,*62
1484788023.58,21438,6.13,73926.0,-17.51,-48.69,-48.83,0,*6A
1484788024.82,21439,6.13,73922.3,-17.47,-48.55,-48.69,0,*67
1484788026.06,21440,6.13,73922.5,-17.49,-48.63,-48.91,0,*65
1484788027.28,21441,6.13,73924.8,-17.49,-49.05,-49.25,0,*6B
1484788028.52,21442,6.13,73920.3,-17.49,-49.05,-49.11,0,*6F
1484788029.76,21443,6.13,73922.8,-17.49,-49.05,-49.47,0,*6D
1484788031.0,21444,6.13,73922.5,-17.51,-49.05,-49.25,0,*67
1484788032.3,21445,6.13,73918.8,-17.51,-48.69,-48.69,0,*64
1484788033.52,21446,6.13,73920.3,-17.49,-49.05,-49.25,0,*6C
1484788034.79,21447,6.13,73918.5,-17.51,-49.05,-49.11,0,*63
1484788036.06,21448,6.13,73922.3,-17.49,-48.91,-49.11,0,*69
1484788037.32,21449,6.13,73920.3,-17.51,-48.91,-49.25,0,*66
1484788038.57,21450,6.13,73920.3,-17.51,-48.83,-49.05,0,*6F
1484788039.78,21451,6.06,73918.3,-17.49,-48.55,-48.83,0,*63
1484788041.03,21452,6.13,73922.5,-17.49,-48.91,-49.33,0,*62
1484788042.32,21453,6.06,73916.5,-17.51,-48.91,-49.11,0,*6A
1484788043.59,21454,6.13,73926.0,-17.49,-48.91,-49.11,0,*64
1484788044.89,21455,6.13,73920.0,-17.51,-48.69,-48.91,0,*62
1484788046.16,21456,6.13,73922.8,-17.51,-48.69,-48.83,0,*62
1484788047.41,21457,6.13,73922.3,-17.51,-49.05,-49.33,0,*62
1484788048.67,21458,6.13,73920.3,-17.51,-48.91,-49.25,0,*66
1484788049.97,21459,6.13,73920.3,-17.51,-48.91,-49.11,0,*60
1484788051.24,21460,6.13,73920.3,-17.51,-48.55,-48.69,0,*6C
1484788052.51,21461,6.13,73924.3,-17.51,-49.05,-49.11,0,*67
1484788053.77,21462,6.13,73920.3,-17.51,-48.83,-48.91,0,*62
1484788055.04,21463,6.13,73918.0,-17.51,-48.83,-49.11,0,*6A
1484788056.28,21464,6.13,73922.3,-17.51,-49.05,-49.25,0,*65
1484788057.55,21465,6.13,73920.0,-17.51,-48.91,-49.05,0,*6A
1484788058.8,21466,6.13,73920.5,-17.51,-48.55,-48.83,0,*6E
1484788060.05,21467,6.13,73922.5,-17.51,-49.05,-49.33,0,*61
1484788061.29,21468,6.13,73922.8,-17.51,-49.05,-49.25,0,*69
1484788062.55,21469,6.13,73920.3,-17.51,-48.91,-49.25,0,*64
1484788063.77,21470,6.13,73924.5,-17.53,-48.97,-49.33,0,*6F
1484788065.01,21471,6.13,73922.0,-17.51,-49.05,-49.25,0,*61
1484788066.28,21472,6.13,73920.0,-17.51,-48.69,-48.83,0,*64
1484788067.49,21473,6.13,73920.8,-17.53,-48.63,-48.97,0,*68
1484788068.75,21474,6.13,73924.0,-17.53,-49.11,-49.19,0,*6C
1484788070.01,21475,6.13,73920.3,-17.55,-49.25,-49.61,0,*63
1484788071.25,21476,6.13,73918.3,-17.55,-49.05,-49.25,0,*62
1484788072.49,21477,6.13,73920.5,-17.53,-48.63,-48.77,0,*62
1484788073.7,21478,6.13,73920.8,-17.53,-48.97,-49.33,0,*67
1484788074.96,21479,6.13,73924.3,-17.53,-48.91,-49.19,0,*68
1484788076.22,21480,6.13,73922.0,-17.53,-49.11,-49.19,0,*67
1484788077.44,21481,6.13,73922.3,-17.53,-48.97,-49.33,0,*61
1484788078.68,21482,6.13,73922.3,-17.53,-48.91,-49.33,0,*64
1484788079.94,21483,6.13,73922.0,-17.53,-49.11,-49.39,0,*66
1484788081.24,21484,6.13,73922.0,-17.55,-48.69,-48.69,0,*6D
1484788082.51,21485,6.13,73920.0,-17.53,-48.77,-49.11,0,*6B
1484788083.75,21486,6.13,73920.8,-17.55,-48.83,-49.05,0,*60
1484788085.01,21487,6.13,73922.8,-17.55,-48.97,-49.19,0,*69
1484788086.26,21488,6.13,73920.8,-17.53,-48.91,-49.19,0,*66
1484788087.51,21489,6.13,73924.3,-17.53,-49.11,-49.33,0,*66
1484788088.77,21490,6.13,73922.0,-17.55,-48.83,-49.19,0,*6A
1484788090.01,21491,6.13,73922.5,-17.53,-49.11,-49.33,0,*6F
1484788091.28,21492,6.13,73922.5,-17.55,-49.05,-49.47,0,*6C
1484788092.54,21493,6.13,73922.3,-17.55,-49.05,-49.47,0,*6D
1484788093.77,21494,6.13,73920.0,-17.55,-48.97,-49.25,0,*64
1484788095.04,21495,6.06,73916.3,-17.53,-49.11,-49.39,0,*61
1484788096.31,21496,6.13,73922.0,-17.55,-48.77,-49.05,0,*6A
1484788097.54,21497,6.13,73920.8,-17.55,-48.83,-48.97,0,*6A
1484788098.77,21498,6.13,73920.8,-17.55,-48.55,-48.97,0,*6E
1484788100.03,21499,6.13,73918.5,-17.55,-48.77,-48.97,0,*6F